Location: Frydek-Mistek
(49.6830°N, 18.3330°E)
Time: 00:06:50
(UTC+01:00)

Courier 1B Rocket - All Passes

Search period start: 15 February 2016 00:00
Search period end: 25 February 2016 00:00
Orbit: 921 x 1202 km, 28.3° (Epoch: 13 February)

Date Brightness Start Highest point End Pass type
(mag) Time Alt. Az. Time Alt. Az. Time Alt. Az.
15 Feb - 01:40:56 10° SSW 01:44:17 13° S 01:47:41 10° SSE night (unlit)
16 Feb - 00:40:23 10° SSW 00:43:36 13° S 00:46:52 10° SSE night (unlit)
16 Feb - 02:34:00 10° SSW 02:35:42 11° SSW 02:37:26 10° S night (unlit)
16 Feb - 23:40:18 10° SSW 23:42:57 12° S 23:45:38 10° SSE night (unlit)
17 Feb - 01:32:21 10° SSW 01:35:02 12° S 01:37:44 10° SSE night (unlit)
17 Feb - 22:41:16 10° S 22:42:20 10° SSE 22:43:25 10° SSE night (unlit)
18 Feb - 00:31:28 10° SSW 00:34:22 13° S 00:37:19 10° SSE night (unlit)
18 Feb - 23:31:02 10° SSW 23:33:43 12° S 23:36:28 10° SSE night (unlit)
19 Feb - 01:25:18 10° SSW 01:25:47 10° SSW 01:26:16 10° S night (unlit)
19 Feb - 22:31:10 10° S 22:33:07 11° S 22:35:05 10° SSE night (unlit)
20 Feb - 00:23:09 10° SSW 00:25:08 11° S 00:27:10 10° S night (unlit)
20 Feb - 23:22:16 10° SSW 23:24:31 12° S 23:26:48 10° SSE night (unlit)
21 Feb - 22:21:57 10° SSW 22:23:56 11° S 22:25:55 10° SSE night (unlit)
22 Feb - 21:22:30 10° S 21:23:22 10° S 21:24:13 10° SSE night (unlit)
22 Feb - 23:14:41 10° SSW 23:15:20 10° S 23:15:59 10° S night (unlit)
23 Feb - 22:13:29 10° SSW 22:14:45 11° S 22:16:03 10° S night (unlit)
24 Feb - 21:13:17 10° S 21:14:12 10° S 21:15:07 10° S visible
